Regional Weather Roundup
Issued by NWS

Home | Current Version | Previous Version | Text Only | Print | Product List | Glossary On
Versions: 1 2 3 4 5 6 7 8 9 10 11 12 13 14 15 16 17 18 19 20 21 22 23 24 25 26 27 28 29 30 31 32 33 34 35 36 37 38 39 40 41 42 43 44 45 46 47 48 49 50
000
ASUS43 KMKX 180321
RWRWI

WISCONSIN REGIONAL WEATHER ROUNDUP
NATIONAL WEATHER SERVICE MILWAUKEE/SULLIVAN WI
900 PM CST FRI NOV 17 2017

NOTE: "FAIR" INDICATES FEW OR NO CLOUDS BELOW 12,000 FEET WITH NO
SIGNIFICANT WEATHER AND/OR OBSTRUCTIONS TO VISIBILITY.

WIZ001-002-006>008-014>016-023>028-180400-
NORTHWEST WISCONSIN

CITY           SKY/WX    TMP DP  RH WIND       PRES   REMARKS
SUPERIOR ARPT  CLOUDY    32  32  99 CALM      29.68R FOG
ASHLAND        CLOUDY    33  31  92 SW3       29.66F FOG
HAYWARD        FOG       33  32  96 CALM      29.63S VSB 1/2
SIREN          CLOUDY    34  33  98 N3        29.66R FOG
CUMBERLAND     FOG       32  32 100 N3        29.63F VSB 1/2
RICE LAKE      CLOUDY    34  34 100 CALM      29.64F FOG
CHETEK         FOG       34  34 100 CALM      29.64R VSB 1
LADYSMITH      FOG       34  34  99 NW5       29.64R VSB 1   WCI  30
EAU CLAIRE     CLOUDY    36  35  96 N3        29.63R FOG
MENOMONIE      FOG       36  36 100 NW6       29.65R VSB 1   WCI  31
NEW RICHMOND   FOG       35  35 100 CALM      29.65R VSB 3/4
OSCEOLA        CLOUDY    36  36 100 N5        29.68S FOG     WCI  32
$$

WIZ003>005-009-010-017-018-180400-
NORTH CENTRAL WISCONSIN

CITY           SKY/WX    TMP DP  RH WIND       PRES   REMARKS
MANITOWISH WTR CLOUDY    32  32 100 CALM      29.59F
ARBOR VITAE    CLOUDY    34  33  96 CALM      29.59F FOG
WOODRUFF       CLOUDY    34  33  96 CALM      29.59F FOG
RHINELANDER    CLOUDY    33  33 100 CALM      29.60S FOG
EAGLE RIVER    CLOUDY    32  32 100 CALM      29.58F FOG
LAND O LAKES   LGT SNOW  33  33 100 CALM      29.61F
PHILLIPS       CLOUDY    32  32 100 CALM      29.60F FOG
TOMAHAWK       CLOUDY    32  31  96 CALM      29.60F FOG
MEDFORD        FOG       32  32 100 N3        29.58F VSB 1/2
MERRILL        CLOUDY    33  33 100 CALM      29.60F FOG
$$

WIZ029-030-035-036-043>047-180400-
CENTRAL WISCONSIN

CITY           SKY/WX    TMP DP  RH WIND       PRES   REMARKS
WAUSAU         CLOUDY    34  34 100 CALM      29.59F FOG
MOSINEE        CLOUDY    34  34 100 CALM      29.61F FOG
MARSHFIELD     CLOUDY    35  33  92 CALM      29.59F FOG
STEVENS POINT  CLOUDY    33  33 100 CALM      29.61F FOG
WAUPACA        CLOUDY    38  37  95 CALM      29.62S FOG
WAUTOMA        CLOUDY    36  36 100 CALM      29.61F FOG
WISC RAPIDS    CLOUDY    36  35  96 CALM      29.61F FOG
CAMP DOUGLAS   CLOUDY    37  37 100 NW3       29.61R FOG
$$

WIZ011>013-019>022-031-037>040-048>050-180400-
NORTHEAST WISCONSIN

CITY           SKY/WX    TMP DP  RH WIND       PRES   REMARKS
ANTIGO         CLOUDY    32  32 100 CALM      29.60F FOG
SHAWANO        DRIZZLE   37  36  94 CALM      29.62F
OCONTO         CLOUDY    37  36  99 CALM      29.63F
STURGEON BAY   LGT RAIN  37  37 100 W3        29.63F FOG
GREEN BAY      RAIN      38  38 100 CALM      29.63S FOG
MANITOWOC      RAIN      40  39  97 W3        29.62  FOG
APPLETON       LGT RAIN  37  37 100 CALM      29.60S
CLINTONVILLE   CLOUDY    37  36  93 CALM      29.62F FOG
OSHKOSH        LGT RAIN  38  37  97 CALM      29.61S FOG
$$

WIZ032>034-041-042-053>061-180400-
SOUTHWEST WISCONSIN

CITY           SKY/WX    TMP DP  RH WIND       PRES   REMARKS
LA CROSSE      CLOUDY    39  38  96 CALM      29.62R FOG
SPARTA         CLOUDY    35  35 100 CALM      29.62S FOG
VIROQUA        CLOUDY    36  36 100 CALM      29.59S VSB 1/4
BOSCOBEL       CLOUDY    39  38  96 CALM      29.60F FOG
PRAIRIE DU CHI CLOUDY    38  37  97 W3        29.60S FOG
PLATTEVILLE    CLOUDY    40  40 100 CALM      29.59R VSB 1/2
$$

WIZ056-057-062-063-064-067-068-180400-
SOUTH CENTRAL WISCONSIN

CITY           SKY/WX    TMP DP  RH WIND       PRES   REMARKS
REEDSBURG      CLOUDY    37  37 100 CALM      29.59F FOG
BARABOO/DELLS  FOG       37  36  98 CALM      29.59F VSB 3/4
LONE ROCK      CLOUDY    39  39 100 CALM      29.60F FOG
MINERAL POINT  LGT RAIN  39  39 100 CALM      29.58F VSB 3/4
MADISON        CLOUDY    40  39  97 CALM      29.59F FOG
MIDDLETON      CLOUDY    39  39 100 CALM      29.60F
WATERTOWN      CLOUDY    39  39 100 CALM      29.59F FOG
MONROE         DRIZZLE   39  37  93 CALM      29.58S
JANESVILLE     DRIZZLE   43  43 100 SW5       29.58F
$$

WIZ051-052-058>065-066-070>072-180400-
SOUTHEAST WISCONSIN

CITY           SKY/WX    TMP DP  RH WIND       PRES   REMARKS
MILWAUKEE      LGT RAIN  43  42  97 CALM      29.60F FOG
WAUKESHA       DRIZZLE   37  37 100 CALM      29.61S FOG
MILWAUKEE/TIMM DRIZZLE   39  37  93 CALM      29.61F
RACINE         LGT RAIN  43  42  97 SW6       29.61F FOG
BURLINGTON     DRIZZLE   44  44 100 SW9       29.59F
KENOSHA        LGT RAIN  44  41  89 SW7       29.59F FOG
FOND DU LAC    LGT RAIN  40  37  89 NW3       29.61S
SHEBOYGAN      LGT RAIN  40  40 100 CALM      29.61F FOG
WEST BEND      DRIZZLE   37  37 100 CALM      29.60S
JUNEAU         CLOUDY    38  37  99 SW3       29.61S FOG
$$

LSZ147-162-180400-
LAKE SUPERIOR

STATION/POSITION TIME  TEMP    WIND        PRES    WAVE
                       AIR SEA DIR/SP/G            HT/PER
                 (UTC) (F)     (DEG/KT/KT) (MB)    (FT/S)
DEVILS ISLAND    0300   37     320/ 14/ 16 1004.6F
SAXON HARBOR     0240   33      CALM  /  1 1003.4F
$$

LMZ867-665-643>646-180400-
LAKE MICHIGAN

STATION/POSITION TIME  TEMP    WIND        PRES    WAVE
                       AIR SEA DIR/SP/G            HT/PER
                 (UTC) (F)     (DEG/KT/KT) (MB)    (FT/S)
N MID LAKE BUOY  0250   44 48  180/ 19/ 23 1003.6F   9/ 8
NORTHPORT PIER   0240   40     250/  3/  6 1003.4R
SHEBOYGAN LAKESH 0300   41     210/  8/ 10 1002.9F
PORT WASHINGTON  0240   41     200/  3/  3 1003.7F
MILWAUKEE LAKESH 0300   41     230/  4/  4   N/A
S MID LAKE BUOY  0250   46 50  200/ 23/ 29 1002.9F   7/ 6
KENOSHA   LAKESH 0300   43     200/  4/  7 1002.7
$$

TC  - TEMPERATURE IN CELSIUS
VSB - VISIBILITY IN STATUTE MILES
WCI - WIND CHILL INDEX
HX  - HEAT INDEX





USA.gov is the U.S. government's official web portal to all federal, state and local government web resources and services.